Regional Weather Roundup
Issued by NWS

Home | Current Version | Previous Version | Text Only | Print | Product List | Glossary Off
Versions: 1 2 3 4 5 6 7 8 9 10 11 12 13 14 15 16 17 18 19 20 21 22 23 24 25 26 27 28 29 30 31 32 33 34 35 36 37 38 39 40 41 42 43 44 45 46 47 48 49 50

000
ASUS43 KLMK 040110
RWRKY
KENTUCKY REGIONAL WEATHER ROUNDUP
NATIONAL WEATHER SERVICE LOUISVILLE KY
900 PM EDT THU SEP 03 2015

NOTE "FAIR" INDICATES FEW OR NO CLOUDS BELOW 12,000 FEET
WITH NO SIGNIFICANT WEATHER AND/OR OBSTRUCTIONS TO VISIBILITY.

KYZ001>023-026-027-061>063-070>075-040200-
WESTERN AND SOUTH CENTRAL KENTUCKY

CITY           SKY/WX    TMP DP  RH WIND       PRES   REMARKS
PADUCAH        CLEAR     78  72  81 CALM      29.92S
HENDERSON      CLEAR     77  70  78 CALM      29.92R
OWENSBORO      CLEAR     83  70  64 CALM      29.94S
HOPKINSVILLE   PTCLDY    84  69  60 CALM      29.94S
BOWLING GREEN  CLEAR     77  73  87 CALM      29.95R
GLASGOW        CLEAR     76  67  75 CALM      29.96R
$$

KYZ024-025-028>034-038-045-046-053-040200-
NORTH CENTRAL KENTUCKY

CITY           SKY/WX    TMP DP  RH WIND       PRES   REMARKS
LOUISVILLE/SDF CLEAR     84  65  52 W6        29.94R
LOUISVILLE/LOU CLEAR     80  66  62 CALM      29.95R
FORT KNOX      CLEAR     76  68  77 CALM      29.95R
$$

KYZ035>037-039>044-047>052-055>060-089>105-040200-
NORTHEAST KENTUCKY

CITY           SKY/WX    TMP DP  RH WIND       PRES   REMARKS
LEXINGTON      CLEAR     79  67  66 N3        29.98R
COVINGTON      CLEAR     80  65  59 W3        29.96R
FRANKFORT      CLEAR     77  67  71 CALM      29.96R
$$

KYZ054-064>069-076>088-106>120-040200-
SOUTHEAST KENTUCKY

CITY           SKY/WX    TMP DP  RH WIND       PRES   REMARKS
JACKSON        CLEAR     77  66  68 CALM      30.00R
LONDON         CLEAR     76  67  73 CALM      30.00R
SOMERSET       CLEAR     75  68  78 CALM      29.99R
MIDDLESBORO    CLEAR     74  67  78 W5        30.00R
MONTICELLO     CLEAR     72  69  90 CALM      30.01R
$$



USA.gov is the U.S. government's official web portal to all federal, state and local government web resources and services.